Date String (YYYY-MM-DD hh:mm:ss) UTC,Instrument flags,Ambient pressure (hPa),Sample flow (lpm),Bypass flow (lpm),Sample temperature (°C),Ambient temperature (°C),ASC tube jacket temperature (°C),LED temperature (°C),Box temperature (°C),Sample RH (%),Span deviation,Mass concentration (μg/m³),Mass concentration (μg/m³),Mass concentration (μg/m³)
DateTimeUTC,F1_M11,P_M11,Q1_M11,Q2_M11,T1_M11,T2_M11,T3_M11,T4_M11,T5_M11,U1_M11,ZSPAN_M11,X0_M11,X2_M11,X1_M11
2022-07-29 11:00:00,,0830.1,4.99,0.00,30.9,28.5,00.0,39.4,32.1,34.2,-000.7,0011.47,0008.54,0007.95
2022-07-29 11:01:00,,0830.1,5.00,0.00,30.9,28.6,00.0,39.4,32.1,33.9,-000.4,0011.46,0008.49,0007.89
2022-07-29 11:02:00,,0830.1,5.00,0.00,30.9,28.7,00.0,39.4,32.1,33.7,-000.4,0011.90,0008.44,0007.81
2022-07-29 11:03:00,,0830.1,5.00,0.00,30.9,28.7,00.0,39.4,32.1,33.3,-000.6,0011.94,0008.38,0007.74
2022-07-29 11:04:00,,0830.1,5.00,0.00,30.9,28.8,00.0,39.4,32.1,32.9,-000.6,0011.82,0008.28,0007.63
2022-07-29 11:05:00,,0830.1,5.00,0.00,30.8,28.8,00.0,39.4,32.1,32.6,-000.5,0011.63,0008.15,0007.55
2022-07-29 11:06:00,,0830.1,5.00,0.00,30.8,28.9,00.0,39.4,32.2,32.5,-000.4,0011.42,0008.03,0007.47
2022-07-29 11:07:00,,0830.2,5.00,0.00,30.8,28.9,00.0,39.4,32.2,32.5,-000.6,0011.26,0007.89,0007.38
2022-07-29 11:08:00,,0830.1,5.00,0.00,30.8,29.0,00.0,39.4,32.2,32.1,-001.0,0011.00,0007.76,0007.27
2022-07-29 11:09:00,,0830.1,5.00,0.00,30.8,29.0,00.0,39.4,32.2,31.8,-000.9,0010.88,0007.62,0007.15
2022-07-29 11:10:00,,0830.1,5.00,0.00,30.8,29.0,00.0,39.4,32.2,31.7,-000.9,0011.06,0007.46,0007.02
2022-07-29 11:11:00,,0830.1,4.99,0.00,30.8,29.1,00.0,39.4,32.2,31.7,-000.7,0010.93,0007.33,0006.90
2022-07-29 11:12:00,,0830.3,5.00,0.00,30.7,29.1,00.0,39.4,32.2,31.6,-000.3,0010.73,0007.19,0006.79
2022-07-29 11:13:00,,0830.2,5.00,0.00,30.8,29.1,00.0,39.4,32.3,31.3,-000.3,0010.14,0007.05,0006.68
2022-07-29 11:14:00,,0830.3,5.00,0.00,30.7,29.1,00.0,39.4,32.3,31.0,-000.7,0009.96,0006.92,0006.56
2022-07-29 11:15:00,,0830.2,5.00,0.00,30.7,29.2,00.0,39.4,32.3,30.7,-000.8,0009.83,0006.81,0006.46
2022-07-29 11:16:00,,0830.2,5.00,0.00,30.7,29.2,00.0,39.4,32.3,30.6,-001.0,0009.73,0006.70,0006.36
2022-07-29 11:17:00,,0830.3,5.00,0.00,30.7,29.2,00.0,39.4,32.3,30.9,-001.2,0009.78,0006.64,0006.27
2022-07-29 11:18:00,,0830.3,5.01,0.00,30.7,29.2,00.0,39.4,32.3,31.4,-000.8,0009.75,0006.59,0006.21
2022-07-29 11:19:00,,0830.4,5.01,0.00,30.7,29.2,00.0,39.4,32.3,31.5,-000.1,0009.68,0006.56,0006.18
2022-07-29 11:20:00,,0830.4,5.00,0.00,30.7,29.2,00.0,39.4,32.3,31.5,0000.0,0009.60,0006.57,0006.17
2022-07-29 11:21:00,,0830.4,5.00,0.00,30.7,29.2,00.0,39.4,32.3,31.6,-000.0,0009.46,0006.62,0006.16
2022-07-29 11:22:00,,0830.4,5.00,0.00,30.7,29.2,00.0,39.4,32.3,31.9,-000.1,0009.55,0006.61,0006.16
2022-07-29 11:23:00,,0830.4,5.00,0.00,30.7,29.3,00.0,39.4,32.3,32.7,0000.5,0010.10,0006.67,0006.20
2022-07-29 11:24:00,,0830.4,5.01,0.00,30.7,29.3,00.0,39.4,32.3,32.9,0000.3,0010.30,0006.78,0006.26
2022-07-29 11:25:00,,0830.5,5.00,0.00,30.7,29.3,00.0,39.5,32.3,32.8,0000.4,0010.45,0006.90,0006.35
2022-07-29 11:26:00,,0830.4,4.99,0.00,30.7,29.3,00.0,39.5,32.3,32.8,0000.8,0010.64,0007.03,0006.45
2022-07-29 11:27:00,,0830.4,5.01,0.00,30.7,29.3,00.0,39.4,32.3,32.9,0001.3,0010.77,0007.16,0006.56
2022-07-29 11:28:00,,0830.4,4.99,0.00,30.6,29.0,00.0,39.4,32.2,33.2,0001.7,0010.81,0007.28,0006.68
2022-07-29 11:29:00,,0830.4,5.01,0.00,30.6,28.2,00.0,39.4,32.1,33.2,0001.7,0011.09,0007.37,0006.78
2022-07-29 11:30:00,,0830.5,4.99,0.00,30.5,27.8,00.0,39.3,32.0,33.2,0001.2,0011.24,0007.47,0006.88
2022-07-29 11:31:00,,0830.5,5.01,0.00,30.4,27.7,00.0,39.3,31.9,33.4,0000.8,0011.26,0007.53,0006.97
2022-07-29 11:32:00,,0830.4,5.00,0.00,30.3,27.8,00.0,39.2,31.8,33.5,0000.7,0011.14,0007.58,0007.05
2022-07-29 11:33:00,,0830.4,4.99,0.00,30.3,27.9,00.0,39.2,31.8,33.7,0000.6,0011.19,0007.68,0007.13
2022-07-29 11:34:00,,0830.4,5.00,0.00,30.2,28.0,00.0,39.2,31.8,33.8,0000.5,0010.79,0007.71,0007.16
2022-07-29 11:35:00,,0830.5,5.01,0.00,30.2,28.1,00.0,39.1,31.8,33.9,0001.0,0010.68,0007.72,0007.18
2022-07-29 11:36:00,,0830.4,5.00,0.00,30.2,28.2,00.0,39.1,31.9,34.0,0001.0,0010.71,0007.71,0007.20
2022-07-29 11:37:00,,0830.4,5.01,0.00,30.2,28.3,00.0,39.1,31.9,34.1,0000.4,0011.06,0007.70,0007.21
2022-07-29 11:38:00,,0830.4,5.00,0.00,30.2,28.4,00.0,39.1,31.9,34.3,0000.4,0011.21,0007.75,0007.25
2022-07-29 11:39:00,,0830.4,5.00,0.00,30.2,28.5,00.0,39.1,31.9,34.5,0000.3,0011.30,0007.78,0007.28
2022-07-29 11:40:00,,0830.4,5.00,0.00,30.2,28.6,00.0,39.0,31.9,34.5,-000.0,0011.08,0007.81,0007.33
2022-07-29 11:41:00,,0830.4,5.00,0.00,30.2,28.7,00.0,39.0,32.0,34.7,-000.0,0011.01,0007.84,0007.39
2022-07-29 11:42:00,,0830.4,5.00,0.00,30.2,28.7,00.0,39.0,32.0,34.8,0000.1,0011.05,0007.90,0007.45
2022-07-29 11:43:00,,0830.4,4.99,0.00,30.2,28.8,00.0,39.0,32.0,34.8,0000.2,0011.17,0007.98,0007.54
2022-07-29 11:44:00,,0830.4,5.00,0.00,30.2,28.8,00.0,39.0,32.0,34.9,0000.1,0011.24,0008.05,0007.61
2022-07-29 11:45:00,,0830.4,5.00,0.00,30.2,28.8,00.0,39.0,32.0,35.1,-000.3,0011.33,0008.12,0007.69
2022-07-29 11:46:00,,0830.4,5.02,0.00,30.3,28.8,00.0,39.0,32.1,35.0,-000.5,0011.43,0008.22,0007.78
2022-07-29 11:47:00,,0830.5,5.00,0.00,30.5,28.9,00.0,39.0,32.2,34.5,-000.9,0011.43,0008.27,0007.84
2022-07-29 11:48:00,,0830.4,5.00,0.00,30.6,28.9,00.0,39.0,32.1,34.3,-001.1,0011.15,0008.35,0007.90
2022-07-29 11:49:00,,0830.5,5.00,0.00,30.7,28.9,00.0,39.1,32.1,34.4,-001.3,0011.16,0008.42,0007.96
2022-07-29 11:50:00,,0830.5,5.00,0.00,30.7,28.9,00.0,39.1,32.1,34.4,-001.5,0011.22,0008.45,0007.98
2022-07-29 11:51:00,,0830.5,5.00,0.00,30.7,29.0,00.0,39.1,32.1,34.2,-001.2,0011.34,0008.50,0008.00
2022-07-29 11:52:00,,0830.5,5.00,0.00,30.7,29.0,00.0,39.2,32.1,34.1,-001.0,0011.43,0008.53,0008.00
2022-07-29 11:53:00,,0830.5,4.99,0.00,30.7,29.0,00.0,39.2,32.1,33.9,-001.0,0011.74,0008.52,0007.98
2022-07-29 11:54:00,,0830.5,5.00,0.00,30.7,29.0,00.0,39.2,32.1,33.8,-001.3,0011.66,0008.48,0007.94
2022-07-29 11:55:00,,0830.5,5.00,0.00,30.7,29.0,00.0,39.2,32.1,33.9,-001.1,0012.37,0008.45,0007.92
2022-07-29 11:56:00,,0830.4,5.00,0.00,30.7,29.0,00.0,39.2,32.1,33.8,-000.7,0012.61,0008.42,0007.89
2022-07-29 11:57:00,,0830.5,5.00,0.00,30.7,29.1,00.0,39.3,32.1,33.8,-000.2,0012.55,0008.37,0007.86
2022-07-29 11:58:00,,0830.5,5.00,0.00,30.7,29.1,00.0,39.3,32.2,33.8,-000.1,0012.53,0008.36,0007.83
2022-07-29 11:59:00,,0830.5,4.99,0.00,30.7,29.1,00.0,39.3,32.2,33.8,-000.0,0012.51,0008.35,0007.83
